Overview Statistics Trail Chart Weather Telemetry Raw packets
 

This is the latest recevied weather packets stored in our database for station/object KI5NXU. If no packets are shown the sender has not sent any weather packets the latest 10 day(s).

<< 84 85 86 87 88 89 90 >>
Time Temp. Humidity Pressure Rain* Wind** Luminosity Snow
1787765012 30° C 62% 1017.2 hPa 0 mm - 326 W/m² -
1787764707 29.44° C 62% 1017.5 hPa 0 mm - 238 W/m² -
1787764401 28.89° C 64% 1017.4 hPa 0 mm - 173 W/m² -
1787764098 28.89° C 63% 1017.6 hPa 0 mm - 163 W/m² -
1787763794 28.89° C 64% 1017.3 hPa 0 mm - 151 W/m² -
1787763489 28.89° C 62% 1017.5 hPa 0 mm - 133 W/m² -
1787763189 28.89° C 63% 1017.1 hPa 0 mm - 137 W/m² -
1787762884 28.89° C 63% 1017.4 hPa 0 mm - 145 W/m² -
1787762579 28.89° C 63% 1017.3 hPa 0 mm - 138 W/m² -
1787762275 28.33° C 64% 1017.4 hPa 0 mm - 111 W/m² -
1787761970 28.33° C 64% 1017.6 hPa 0 mm - 78 W/m² -
1787761664 28.33° C 65% 1017.3 hPa 0 mm - 59 W/m² -
1787761360 27.78° C 66% 1017.2 hPa 0 mm - 56 W/m² -
1787761059 27.78° C 65% 1017.5 hPa 0 mm - 67 W/m² -
1787760758 27.78° C 68% 1017.5 hPa 0 mm - 72 W/m² -
1787760453 27.78° C 68% 1017.3 hPa 0 mm - 65 W/m² -
1787760147 28.33° C 65% 1017.4 hPa 0 mm - 47 W/m² -
1787759844 27.78° C 66% 1017.6 hPa 0 mm - 45 W/m² -
1787759540 27.78° C 65% 1017.5 hPa 0 mm - 53 W/m² -
1787759235 28.33° C 64% 1017.5 hPa 0 mm - 52 W/m² -
1787758935 28.33° C 65% 1017.5 hPa 0 mm - 57 W/m² -
1787758630 28.33° C 65% 1017.4 hPa 0 mm - 65 W/m² -
1787758329 28.33° C 65% 1017.5 hPa 0 mm - 87 W/m² -
1787758023 28.33° C 66% 1017.6 hPa 0 mm - 85 W/m² -
1787757721 28.33° C 65% 1017.6 hPa 0 mm - 72 W/m² -

* Rain latest hour (hover to see other rain measurements)
** Current wind speed in m/s (hover to see current wind gust speed)